sat.trackr.live / text

‹ back to catalog

ONEWEB-0689

NORAD 61597 · 2024-188D

PAYLOAD ACTIVE UNKNOWN

§ Identity

Operator
Country
UK
Launch date
2024-10-20
Launch site
AFWTR
Launch vehicle
Mass (kg)
RCS (m²)

Purposes: comms

External: N2YO · Heavens-Above · Gunter

§ Orbital elements

Epoch: 2026-09-19T13:40:38.965152Z

Period
109.80 min
Inclination
87.8971°
Eccentricity
0.0001602
Mean motion
13.11418552 rev/d
Perigee alt
1,216.5 km
Apogee alt
1,218.9 km
Semi-major
7,595.8 km
B*
1.2016e-3
RAAN
2.2960°
Arg perigee
109.9355°
Mean anomaly
250.1945°
Rev number
9,682

§ Raw data

ONEWEB-06891 61597U 24188D   26262.56989543  .00000439  00000+0  12016-2 0  99952 61597  87.8971   2.2960 0001602 109.9355 250.1945 13.11418552 96822

JSON: /api/v1/satellites/61597 · /tle

For live sub-satellite position, see the globe view (requires WebGL).

§ Visibility from observer

Set your observer location to see the next 7 days of passes ≥ 10°. The values pass through the URL so the page stays shareable.

No JS? Fill the form by hand. The geolocation button needs JavaScript.